Météo par heure à Juryzdyka

Ce jour, 20 Juin, Dimanche

Heure Température Précipitation Vent Pression Humidité
00:00 +20°C° 0 mm 2 m/s 751 mmHg 84%
01:00 +19°C° 0 mm 2 m/s 751 mmHg 86%
02:00 +18°C° 0 mm 2 m/s 751 mmHg 89%
03:00 +18°C° 0 mm 2 m/s 751 mmHg 89%
04:00 +18°C° 0 mm 2 m/s 751 mmHg 90%
05:00 +18°C° 0 mm 2 m/s 750 mmHg 90%
06:00 +20°C° 0 mm 2 m/s 750 mmHg 83%
07:00 +22°C° 0 mm 3 m/s 750 mmHg 76%
08:00 +25°C° 0 mm 3 m/s 750 mmHg 70%
09:00 +26°C° 0 mm 3 m/s 750 mmHg 65%
10:00 +27°C° 0 mm 4 m/s 750 mmHg 61%
11:00 +29°C° 0 mm 4 m/s 750 mmHg 57%
12:00 +29°C° 0.6 mm 4 m/s 750 mmHg 59%
13:00 +29°C° 0.6 mm 4 m/s 750 mmHg 61%
14:00 +29°C° 0.6 mm 4 m/s 750 mmHg 63%
15:00 +29°C° 0.1 mm 4 m/s 749 mmHg 60%
16:00 +30°C° 0.1 mm 4 m/s 749 mmHg 58%
17:00 +30°C° 0.1 mm 4 m/s 748 mmHg 55%
18:00 +29°C° 0 mm 4 m/s 748 mmHg 62%
19:00 +27°C° 0 mm 4 m/s 748 mmHg 68%
20:00 +26°C° 0 mm 3 m/s 748 mmHg 75%
21:00 +24°C° 0.1 mm 3 m/s 748 mmHg 80%
22:00 +22°C° 0.1 mm 3 m/s 748 mmHg 85%
23:00 +21°C° 0.1 mm 3 m/s 748 mmHg 90%

Demain, 21 Juin, Lundi

Heure Température Précipitation Vent Pression Humidité
00:00 +20°C° 0 mm 3 m/s 748 mmHg 91%
01:00 +20°C° 0 mm 3 m/s 748 mmHg 92%
02:00 +20°C° 0 mm 3 m/s 748 mmHg 94%
03:00 +20°C° 0 mm 3 m/s 748 mmHg 94%
04:00 +19°C° 0 mm 3 m/s 748 mmHg 94%
05:00 +19°C° 0 mm 3 m/s 747 mmHg 94%
06:00 +21°C° 0 mm 3 m/s 748 mmHg 86%
07:00 +22°C° 0 mm 3 m/s 748 mmHg 79%
08:00 +25°C° 0 mm 4 m/s 748 mmHg 72%
09:00 +26°C° 0 mm 4 m/s 748 mmHg 66%
10:00 +27°C° 0 mm 5 m/s 747 mmHg 60%
11:00 +28°C° 0 mm 5 m/s 747 mmHg 54%
12:00 +29°C° 0 mm 5 m/s 747 mmHg 52%
13:00 +29°C° 0 mm 5 m/s 747 mmHg 50%
14:00 +30°C° 0 mm 5 m/s 747 mmHg 48%
15:00 +30°C° 0 mm 5 m/s 746 mmHg 51%
16:00 +29°C° 0 mm 5 m/s 746 mmHg 53%
17:00 +29°C° 0 mm 5 m/s 746 mmHg 56%
18:00 +28°C° 0.1 mm 4 m/s 746 mmHg 62%
19:00 +26°C° 0.1 mm 4 m/s 746 mmHg 69%
20:00 +25°C° 0.1 mm 3 m/s 746 mmHg 75%
21:00 +22°C° 0 mm 3 m/s 746 mmHg 80%
22:00 +21°C° 0 mm 3 m/s 746 mmHg 85%
23:00 +20°C° 0 mm 3 m/s 746 mmHg 90%

Après-demain, 22 Juin, Mardi

Heure Température Précipitation Vent Pression Humidité
00:00 +20°C° 0 mm 3 m/s 746 mmHg 91%
01:00 +19°C° 0 mm 3 m/s 746 mmHg 92%
02:00 +19°C° 0 mm 3 m/s 745 mmHg 93%
03:00 +19°C° 0 mm 2 m/s 745 mmHg 94%
04:00 +19°C° 0 mm 2 m/s 745 mmHg 94%
05:00 +19°C° 0 mm 2 m/s 745 mmHg 94%
06:00 +21°C° 0 mm 3 m/s 746 mmHg 87%
07:00 +24°C° 0 mm 3 m/s 746 mmHg 81%
08:00 +25°C° 0 mm 4 m/s 746 mmHg 74%
09:00 +26°C° 0.1 mm 4 m/s 746 mmHg 69%
10:00 +28°C° 0.1 mm 4 m/s 746 mmHg 65%
11:00 +29°C° 0.1 mm 4 m/s 746 mmHg 60%
12:00 +29°C° 0.1 mm 4 m/s 746 mmHg 57%
13:00 +30°C° 0.1 mm 4 m/s 746 mmHg 54%
14:00 +32°C° 0.1 mm 4 m/s 746 mmHg 51%
15:00 +30°C° 0.4 mm 4 m/s 746 mmHg 57%
16:00 +28°C° 0.4 mm 3 m/s 746 mmHg 64%
17:00 +27°C° 0.4 mm 2 m/s 746 mmHg 71%
18:00 +27°C° 0.3 mm 2 m/s 746 mmHg 74%
19:00 +26°C° 0.3 mm 1 m/s 746 mmHg 77%
20:00 +25°C° 0.3 mm 1 m/s 747 mmHg 80%
21:00 +24°C° 0.5 mm 1 m/s 747 mmHg 82%
22:00 +24°C° 0.5 mm 1 m/s 747 mmHg 85%
23:00 +23°C° 0.5 mm 1 m/s 747 mmHg 87%

23 Juin, Mercredi

Heure Température Précipitation Vent Pression Humidité
00:00 +22°C° 1.2 mm 1 m/s 747 mmHg 90%
01:00 +21°C° 1.2 mm 2 m/s 747 mmHg 93%
02:00 +20°C° 1.2 mm 2 m/s 747 mmHg 95%
03:00 +20°C° 0.5 mm 2 m/s 747 mmHg 95%
04:00 +20°C° 0.5 mm 2 m/s 748 mmHg 95%
05:00 +21°C° 0.5 mm 1 m/s 748 mmHg 95%
06:00 +22°C° 0.5 mm 1 m/s 748 mmHg 91%
07:00 +23°C° 0.5 mm 1 m/s 748 mmHg 87%
08:00 +25°C° 0.5 mm 2 m/s 748 mmHg 83%
09:00 +26°C° 0.1 mm 2 m/s 748 mmHg 77%
10:00 +28°C° 0.1 mm 2 m/s 748 mmHg 71%
11:00 +29°C° 0.1 mm 2 m/s 748 mmHg 65%
12:00 +29°C° 0.9 mm 2 m/s 748 mmHg 64%
13:00 +30°C° 0.9 mm 2 m/s 749 mmHg 63%
14:00 +30°C° 0.9 mm 2 m/s 749 mmHg 62%
15:00 +30°C° 0.4 mm 2 m/s 749 mmHg 64%
16:00 +30°C° 0.4 mm 2 m/s 748 mmHg 67%
17:00 +29°C° 0.4 mm 2 m/s 748 mmHg 69%
18:00 +28°C° 1.4 mm 2 m/s 748 mmHg 73%
19:00 +27°C° 1.4 mm 2 m/s 748 mmHg 77%
20:00 +26°C° 1.4 mm 1 m/s 748 mmHg 81%
21:00 +25°C° 2.2 mm 2 m/s 749 mmHg 85%
22:00 +23°C° 2.2 mm 2 m/s 749 mmHg 89%
23:00 +21°C° 2.2 mm 2 m/s 749 mmHg 93%

24 Juin, Jeudi

Heure Température Précipitation Vent Pression Humidité
00:00 +21°C° 0.8 mm 2 m/s 749 mmHg 92%
01:00 +21°C° 0.8 mm 2 m/s 749 mmHg 92%
02:00 +21°C° 0.8 mm 2 m/s 749 mmHg 91%
03:00 +21°C° 0 mm 1 m/s 749 mmHg 92%
04:00 +21°C° 0 mm 1 m/s 749 mmHg 93%
05:00 +21°C° 0 mm 1 m/s 749 mmHg 94%
06:00 +22°C° 0 mm 1 m/s 749 mmHg 90%
07:00 +23°C° 0 mm 1 m/s 749 mmHg 87%
08:00 +24°C° 0 mm 1 m/s 749 mmHg 84%
09:00 +26°C° 0 mm 1 m/s 749 mmHg 78%
10:00 +27°C° 0 mm 1 m/s 749 mmHg 72%
11:00 +29°C° 0 mm 1 m/s 750 mmHg 67%
12:00 +29°C° 0.3 mm 1 m/s 749 mmHg 65%
13:00 +30°C° 0.3 mm 1 m/s 749 mmHg 64%
14:00 +30°C° 0.3 mm 2 m/s 749 mmHg 63%
15:00 +30°C° 0.3 mm 2 m/s 749 mmHg 63%
16:00 +30°C° 0.3 mm 1 m/s 749 mmHg 64%
17:00 +30°C° 0.3 mm 1 m/s 749 mmHg 65%
18:00 +29°C° 0.1 mm 1 m/s 748 mmHg 70%
19:00 +28°C° 0.1 mm 1 m/s 748 mmHg 75%
20:00 +26°C° 0.1 mm 1 m/s 748 mmHg 80%
21:00 +25°C° 0.1 mm 1 m/s 748 mmHg 85%
22:00 +24°C° 0.1 mm 2 m/s 748 mmHg 89%
23:00 +21°C° 0.1 mm 2 m/s 748 mmHg 93%

25 Juin, Vendredi

Heure Température Précipitation Vent Pression Humidité
00:00 +21°C° 1.1 mm 2 m/s 747 mmHg 94%
01:00 +20°C° 1.1 mm 2 m/s 747 mmHg 95%
02:00 +19°C° 1.1 mm 2 m/s 747 mmHg 96%
03:00 +19°C° 0.7 mm 2 m/s 747 mmHg 97%
04:00 +19°C° 0.7 mm 2 m/s 747 mmHg 97%
05:00 +18°C° 0.7 mm 2 m/s 746 mmHg 97%
06:00 +19°C° 0 mm 2 m/s 747 mmHg 95%
07:00 +20°C° 0 mm 3 m/s 747 mmHg 93%
08:00 +20°C° 0 mm 3 m/s 747 mmHg 90%
09:00 +21°C° 0 mm 3 m/s 747 mmHg 86%
10:00 +22°C° 0 mm 3 m/s 747 mmHg 82%
11:00 +24°C° 0 mm 2 m/s 747 mmHg 77%
12:00 +24°C° 0 mm 3 m/s 748 mmHg 77%
13:00 +22°C° 0 mm 3 m/s 748 mmHg 77%
14:00 +22°C° 0 mm 3 m/s 748 mmHg 77%
15:00 +22°C° 0 mm 3 m/s 748 mmHg 79%
16:00 +21°C° 0 mm 3 m/s 748 mmHg 82%
17:00 +20°C° 0 mm 3 m/s 748 mmHg 84%
18:00 +20°C° 0 mm 3 m/s 748 mmHg 84%
19:00 +19°C° 0 mm 3 m/s 748 mmHg 84%
20:00 +19°C° 0 mm 3 m/s 748 mmHg 84%
21:00 +18°C° 0 mm 3 m/s 748 mmHg 83%
22:00 +17°C° 0 mm 3 m/s 749 mmHg 83%
23:00 +16°C° 0 mm 2 m/s 749 mmHg 83%
Voir plus

Nous avons besoin de votre consentement

Meteoprog et ses fournisseurs de services peuvent stocker et accéder à des données personnelles telles que des cookies, des identifiants d'appareils ou d'autres technologies similaires sur votre appareil et traiter ces données pour personnaliser le contenu et les publicités, ainsi que pour fournir des fonctionnalités de médias sociaux et analyser le trafic.

  • Stocker et/ou accéder à des informations sur votre appareil

    Des cookies, des identifiants d'appareils ou d'autres informations peuvent être stockés ou accessibles sur votre appareil aux fins indiquées ci-dessus.

  • Annonces et contenus personnalisés, mesure des annonces et des contenus, connaissance de l'audience et développement de produits

    Les annonces et le contenu peuvent être personnalisés en fonction d'un profil. D'autres données peuvent être ajoutées pour mieux personnaliser les annonces et le contenu. Les performances des publicités et du contenu peuvent être mesurées. Il est possible d'obtenir des informations sur le public qui a vu les publicités et le contenu. Ces données peuvent être utilisées pour développer ou améliorer l'expérience de l'utilisateur, les systèmes et les logiciels.

En cliquant sur "J'accepte", vous autorisez l'utilisation de cookies, des identifiants d'appareils, des balises web ou d'autres technologies similaires. Vos paramètres peuvent être modifiés dans le navigateur de votre appareil.

Dans certains cas, des intérêts légitimes peuvent être invoqués plutôt qu'un consentement. Vous pouvez en savoir plus à ce sujet dans notre Politique de confidentialité et de cookies.